EW8543 Weather Reports


Display with metric or nautical units.
time (UTC)temp
F
wind
direction
speed
MPH
gust
MPH
rain 1hr
in
rain 24hr
in
rain mn
in
humidity
%
barometer
mb
20260904201025 66 234 13.0 21.0 0.00 0.55 0.11 67 1015.2
20260904200530 66 298 11.0 24.0 0.00 0.55 0.11 67 1015.3
20260904200032 66 207 12.0 24.0 0.00 0.55 0.11 68 1015.3
20260904195522 66 259 10.0 19.0 0.00 0.55 0.11 67 1015.3
20260904195030 66 266 10.0 21.0 0.00 0.55 0.11 67 1015.2
20260904194533 66 261 12.0 21.0 0.00 0.55 0.11 68 1015.1
20260904194019 66 266 10.0 18.0 0.00 0.55 0.11 67 1015.1
20260904193527 66 274 12.0 18.0 0.00 0.55 0.11 66 1014.9
20260904193055 66 248 12.0 18.0 0.00 0.55 0.11 66 1014.9
20260904192540 66 263 10.0 19.0 0.00 0.55 0.11 67 1014.9
20260904192024 66 234 13.0 19.0 0.00 0.55 0.11 66 1014.8
20260904191030 66 286 12.0 20.0 0.00 0.55 0.11 66 1014.6
20260904190045 66 270 13.0 24.0 0.00 0.55 0.11 69 1014.6
20260904185534 66 266 11.0 20.0 0.00 0.55 0.11 69 1014.4
20260904185042 66 223 8.0 19.0 0.00 0.55 0.11 69 1014.5
20260904184524 66 227 11.0 19.0 0.00 0.55 0.11 69 1014.4
20260904184143 66 284 9.0 21.0 0.00 0.55 0.11 68 1014.4
20260904183534 66 259 11.0 21.0 0.00 0.55 0.11 68 1014.2
20260904183023 66 275 11.0 18.0 0.00 0.55 0.11 69 1014.3
20260904182530 66 248 10.0 23.0 0.00 0.55 0.11 69 1014.3
20260904182031 66 258 11.0 17.0 0.00 0.55 0.11 70 1014.2
20260904181522 66 248 11.0 20.0 0.00 0.55 0.11 71 1014.1
20260904181029 67 267 11.0 20.0 0.00 0.55 0.11 71 1014.1
20260904180530 67 246 11.0 23.0 0.00 0.55 0.11 70 1014.0
20260904180056 67 236 11.0 23.0 0.00 0.55 0.11 70 1014.0
20260904175521 67 248 11.0 19.0 0.00 0.55 0.11 70 1014.1
20260904175027 67 269 11.0 21.0 0.00 0.55 0.11 70 1014.0
20260904174533 67 271 13.0 24.0 0.00 0.55 0.11 69 1013.8
20260904174023 67 253 14.0 24.0 0.00 0.55 0.11 69 1013.9
20260904173529 67 242 13.0 23.0 0.00 0.55 0.11 70 1013.9
20260904173058 67 274 14.0 23.0 0.00 0.55 0.11 71 1013.8
20260904172524 67 245 13.0 21.0 0.00 0.55 0.11 70 1013.7
20260904172049 67 244 13.0 21.0 0.00 0.55 0.11 71 1013.6
20260904171538 67 265 13.0 24.0 0.00 0.55 0.11 70 1013.5
20260904171020 67 283 14.0 24.0 0.00 0.55 0.11 70 1013.5
20260904170531 67 263 12.0 21.0 0.00 0.55 0.11 70 1013.5
20260904170057 67 298 12.0 23.0 0.00 0.55 0.11 70 1013.2
20260904165524 67 266 14.0 23.0 0.00 0.55 0.11 70 1013.4
20260904165024 67 248 11.0 23.0 0.00 0.55 0.11 71 1013.3
20260904164534 67 239 11.0 24.0 0.00 0.55 0.11 71 1013.3
20260904164020 67 264 13.0 24.0 0.00 0.55 0.11 70 1013.3
20260904163530 67 250 13.0 22.0 0.00 0.55 0.11 70 1013.3
20260904163038 67 281 13.0 22.0 0.00 0.55 0.11 70 1013.1
20260904162523 67 254 14.0 23.0 0.00 0.55 0.11 70 1013.0
20260904162028 67 271 14.0 21.0 0.00 0.55 0.11 70 1013.0
20260904161537 67 263 12.0 23.0 0.00 0.55 0.11 71 1012.9
20260904161025 67 234 15.0 23.0 0.00 0.55 0.11 71 1013.0
20260904160555 67 273 12.0 25.0 0.00 0.55 0.11 72 1012.8
20260904160031 67 293 11.0 25.0 0.00 0.55 0.11 73 1012.7
20260904155521 67 286 13.0 25.0 0.00 0.55 0.11 73 1012.9
20260904155030 67 305 13.0 25.0 0.00 0.55 0.11 73 1012.9
20260904154520 68 246 13.0 26.0 0.00 0.55 0.11 73 1012.8
20260904154026 68 268 12.0 22.0 0.00 0.55 0.11 71 1012.9
20260904153531 67 254 14.0 25.0 0.00 0.55 0.11 70 1012.8
20260904153020 68 266 15.0 25.0 0.00 0.55 0.11 72 1012.4
20260904152527 68 246 14.0 24.0 0.00 0.55 0.11 73 1012.7
20260904152048 68 244 12.0 21.0 0.00 0.55 0.11 76 1012.8
20260904151534 68 281 14.0 23.0 0.00 0.55 0.11 75 1013.0
20260904151021 68 269 11.0 22.0 0.00 0.55 0.11 75 1012.7
20260904150529 68 297 10.0 21.0 0.00 0.55 0.11 76 1012.4
20260904150030 68 241 12.0 21.0 0.00 0.55 0.11 75 1012.3
20260904145519 68 237 12.0 27.0 0.00 0.55 0.11 75 1012.5
20260904145043 68 304 12.0 24.0 0.00 0.55 0.11 76 1012.5
20260904144551 68 263 12.0 24.0 0.00 0.55 0.11 77 1012.6
20260904144019 68 254 16.0 21.0 0.00 0.55 0.11 78 1012.5
20260904143528 68 200 12.0 25.0 0.00 0.55 0.11 80 1012.5
20260904143032 68 290 16.0 25.0 0.00 0.55 0.11 79 1012.5
20260904142520 68 247 13.0 22.0 0.00 0.55 0.11 80 1012.3
20260904142026 68 229 14.0 24.0 0.00 0.55 0.11 81 1012.3
20260904141537 68 267 14.0 24.0 0.00 0.55 0.11 82 1012.2
20260904141046 67 262 13.0 22.0 0.00 0.55 0.11 83 1012.2
20260904140527 67 235 13.0 22.0 0.00 0.55 0.11 83 1012.3
20260904140030 68 246 13.0 20.0 0.00 0.55 0.11 83 1012.1
20260904135537 67 262 13.0 19.0 0.00 0.55 0.11 84 1012.0
20260904135024 67 253 10.0 25.0 0.00 0.55 0.11 84 1011.7
20260904134528 68 240 15.0 25.0 0.00 0.55 0.11 84 1011.9
20260904134035 67 238 12.0 21.0 0.00 0.55 0.11 84 1012.0
20260904133522 67 248 13.0 21.0 0.00 0.55 0.11 84 1012.0
20260904133029 67 261 13.0 21.0 0.00 0.55 0.11 84 1011.9
20260904132537 67 241 13.0 22.0 0.00 0.55 0.11 84 1011.7
20260904132021 67 270 15.0 22.0 0.00 0.55 0.11 85 1011.6
20260904131531 67 272 10.0 20.0 0.00 0.55 0.11 86 1011.6
20260904131019 67 276 11.0 21.0 0.00 0.55 0.11 86 1011.4
20260904130529 66 260 13.0 21.0 0.00 0.55 0.11 86 1011.3
20260904130029 67 268 13.0 19.0 0.00 0.55 0.11 87 1011.4
20260904125552 67 232 11.0 20.0 0.00 0.55 0.11 87 1011.4
20260904125019 67 257 11.0 20.0 0.00 0.55 0.11 88 1011.4
20260904124527 66 245 10.0 24.0 0.00 0.55 0.11 88 1011.1
20260904124032 66 256 14.0 23.0 0.00 0.55 0.11 88 1011.3
20260904123520 66 243 10.0 20.0 0.00 0.55 0.11 89 1011.4
20260904123022 66 248 10.0 20.0 0.00 0.55 0.11 90 1011.3
20260904122528 66 259 12.0 20.0 0.00 0.55 0.11 91 1011.2
20260904122034 66 281 10.0 19.0 0.04 0.55 0.11 92 1011.1
20260904121542 65 210 11.0 19.0 0.04 0.55 0.11 93 1011.1
20260904121022 65 252 10.0 21.0 0.04 0.55 0.11 93 1011.0
20260904120526 65 286 12.0 18.0 0.08 0.55 0.11 94 1011.0
20260904120024 65 279 11.0 20.0 0.12 0.55 0.11 94 1011.0
20260904115533 65 282 12.0 22.0 0.16 0.55 0.11 94 1011.1
20260904115020 65 274 13.0 22.0 0.24 0.55 0.11 94 1010.9
20260904114523 65 255 13.0 20.0 0.28 0.55 0.11 95 1010.9
20260904114057 65 252 10.0 19.0 0.28 0.55 0.11 95 1010.8
20260904113542 65 287 10.0 21.0 0.31 0.55 0.11 95 1010.7
20260904113027 65 315 10.0 18.0 0.35 0.55 0.11 95 1010.5
20260904112529 65 270 8.0 16.0 0.39 0.55 0.11 95 1010.7
20260904112030 65 266 8.0 17.0 0.39 0.51 0.10 95 1010.6
20260904111518 65 284 10.0 17.0 0.51 0.51 0.10 94 1010.6
20260904111026 65 251 6.0 17.0 0.51 0.51 0.10 94 1010.6
20260904110548 64 241 9.0 17.0 0.47 0.47 0.09 94 1010.5
20260904110027 64 290 8.0 15.0 0.43 0.43 0.09 94 1010.5
20260904105535 64 290 10.0 14.0 0.39 0.39 0.08 93 1010.6
20260904105022 65 261 9.0 17.0 0.31 0.31 0.06 93 1010.6
20260904104529 65 241 8.0 17.0 0.28 0.28 0.06 92 1010.5
20260904104033 65 244 10.0 16.0 0.28 0.28 0.06 92 1010.6
20260904103522 65 284 11.0 16.0 0.24 0.24 0.05 91 1010.6
20260904103027 65 264 7.0 18.0 0.20 0.20 0.04 90 1010.6
20260904102534 66 270 10.0 20.0 0.16 0.16 0.03 88 1010.6
20260904102022 68 276 12.0 25.0 0.12 0.12 0.02 85 1010.3
20260904101530 70 144 14.0 26.0 0.00 0.00 0.00 87 1010.0
20260904101019 71 246 15.0 31.0 0.00 0.00 0.00 86 1009.8
20260904100525 71 205 18.0 31.0 0.00 0.00 0.00 86 1009.9
20260904100027 71 179 13.0 36.0 0.00 0.00 0.00 86 1009.9
20260904095528 71 286 16.0 36.0 0.00 0.00 0.00 86 1009.9
20260904095034 71 228 11.0 29.0 0.00 0.00 0.00 86 1009.9
20260904094521 71 194 12.0 26.0 0.00 0.00 0.00 86 1009.9
20260904094028 71 223 15.0 30.0 0.00 0.00 0.00 86 1009.9
20260904093549 71 269 15.0 38.0 0.00 0.00 0.00 86 1009.9
20260904093035 71 200 16.0 38.0 0.00 0.00 0.00 86 1009.9
20260904092544 71 197 14.0 31.0 0.00 0.00 0.00 86 1010.0
20260904092032 71 222 13.0 31.0 0.00 0.00 0.00 86 1009.9
20260904091520 71 153 14.0 25.0 0.00 0.00 0.00 86 1009.9
20260904091041 71 140 12.0 29.0 0.00 0.00 0.00 86 1010.0
20260904090523 71 157 13.0 31.0 0.00 0.00 0.00 86 1009.9
20260904090027 71 242 15.0 36.0 0.00 0.00 0.00 86 1010.1
20260904085536 71 197 20.0 36.0 0.00 0.00 0.00 85 1009.9
20260904085019 71 269 15.0 37.0 0.00 0.00 0.00 85 1009.8
20260904084526 71 184 19.0 37.0 0.00 0.00 0.00 85 1009.8
20260904084033 71 186 17.0 34.0 0.00 0.00 0.00 84 1009.7
20260904083521 71 294 19.0 36.0 0.00 0.00 0.00 85 1009.8
20260904083027 72 190 17.0 36.0 0.00 0.00 0.00 85 1009.9
20260904082556 71 188 13.0 32.0 0.00 0.00 0.00 85 1009.7
20260904082022 71 257 19.0 34.0 0.00 0.00 0.00 85 1009.9
20260904081531 71 175 15.0 33.0 0.00 0.00 0.00 86 1009.6
20260904081038 71 189 12.0 35.0 0.00 0.00 0.00 86 1009.7
20260904080526 71 176 17.0 35.0 0.00 0.00 0.00 86 1009.8
20260904080043 71 223 15.0 37.0 0.00 0.00 0.00 86 1009.7
20260904075531 70 234 19.0 37.0 0.00 0.04 0.00 87 1009.8
20260904075019 70 96 18.0 30.0 0.00 0.04 0.00 87 1009.7
20260904074547 70 227 16.0 30.0 0.00 0.04 0.00 88 1009.7
20260904074025 70 150 16.0 33.0 0.00 0.04 0.00 88 1009.7
20260904073533 70 313 17.0 33.0 0.00 0.04 0.00 88 1009.9
20260904073020 70 224 21.0 37.0 0.00 0.04 0.00 88 1009.8
20260904072528 70 166 18.0 37.0 0.00 0.04 0.00 89 1010.1
20260904072028 70 209 11.0 37.0 0.00 0.04 0.00 89 1010.2
20260904071537 69 208 20.0 30.0 0.00 0.04 0.00 89 1010.1
20260904071025 69 267 16.0 30.0 0.00 0.04 0.00 89 1010.1
20260904070534 70 183 11.0 26.0 0.00 0.04 0.00 89 1010.1
20260904070035 70 196 12.0 26.0 0.00 0.04 0.00 89 1010.0
20260904065520 70 213 14.0 27.0 0.00 0.04 0.00 89 1010.1
20260904065026 70 207 14.0 27.0 0.00 0.04 0.00 89 1010.2
20260904064535 69 132 13.0 31.0 0.00 0.04 0.00 89 1010.0
20260904064021 69 173 16.0 32.0 0.00 0.04 0.00 89 1010.2
20260904063528 69 247 10.0 29.0 0.00 0.04 0.00 89 1010.3
20260904063032 69 238 12.0 29.0 0.00 0.04 0.00 89 1010.3
20260904062523 69 190 13.0 30.0 0.00 0.04 0.00 89 1010.1
20260904062026 69 242 12.0 32.0 0.00 0.04 0.00 90 1010.1
20260904061536 69 182 13.0 32.0 0.00 0.04 0.00 90 1010.2
20260904061026 69 244 14.0 30.0 0.00 0.04 0.00 90 1010.0
20260904060531 69 136 14.0 30.0 0.00 0.04 0.00 90 1010.1
20260904060058 69 130 13.0 28.0 0.00 0.04 0.00 90 1010.2
20260904055525 69 153 15.0 32.0 0.00 0.04 0.00 90 1010.2
20260904055057 69 130 16.0 32.0 0.00 0.04 0.00 90 1010.5
20260904054520 69 187 19.0 31.0 0.00 0.04 0.00 90 1010.4
20260904054030 69 235 13.0 33.0 0.00 0.04 0.00 90 1010.3
20260904053519 69 194 14.0 33.0 0.00 0.04 0.00 90 1010.4
20260904053026 69 205 14.0 30.0 0.00 0.04 0.00 89 1010.4
20260904052535 69 232 14.0 28.0 0.00 0.04 0.00 89 1010.5
20260904052017 69 217 13.0 23.0 0.00 0.04 0.00 89 1010.5
20260904051524 69 225 11.0 45.0 0.00 0.04 0.00 89 1010.6
20260904051032 69 224 14.0 45.0 0.00 0.04 0.00 89 1010.6
20260904050520 69 212 14.0 24.0 0.00 0.04 0.00 89 1010.7
20260904050022 69 212 11.0 28.0 0.00 0.04 0.00 89 1010.5
20260904045525 69 157 14.0 31.0 0.00 0.08 0.00 88 1010.6
20260904045032 69 190 14.0 29.0 0.00 0.08 0.00 88 1010.7
20260904044522 69 201 12.0 30.0 0.00 0.08 0.00 88 1011.1
20260904044027 69 211 16.0 30.0 0.00 0.08 0.00 89 1011.0
20260904043528 69 206 11.0 25.0 0.00 0.08 0.00 89 1011.0
20260904043032 69 185 15.0 26.0 0.00 0.08 0.00 89 1011.2
20260904042521 69 223 15.0 32.0 0.00 0.08 0.00 89 1011.2
20260904042030 69 220 14.0 32.0 0.00 0.08 0.00 89 1011.4
20260904041519 69 258 15.0 29.0 0.00 0.08 0.00 89 1011.4
20260904041026 69 203 15.0 29.0 0.00 0.08 0.00 89 1011.6
20260904040529 69 215 15.0 29.0 0.00 0.08 0.00 89 1011.7
20260904040028 69 234 10.0 22.0 0.00 0.08 0.00 89 1011.8
20260904035536 69 185 13.0 22.0 0.00 0.08 0.00 89 1011.9
20260904035022 68 174 11.0 27.0 0.00 0.08 0.00 89 1011.9
20260904034530 68 194 12.0 31.0 0.00 0.08 0.00 90 1011.9
20260904034037 68 205 17.0 31.0 0.00 0.08 0.00 90 1011.7
20260904033526 68 231 10.0 21.0 0.00 0.08 0.00 90 1012.0
20260904033034 68 227 9.0 19.0 0.00 0.08 0.00 90 1012.1
20260904032524 69 231 9.0 19.0 0.00 0.08 0.00 90 1012.0
20260904032028 69 232 8.0 20.0 0.00 0.08 0.00 90 1012.1
20260904031536 69 167 9.0 20.0 0.00 0.08 0.00 90 1012.1
20260904031021 69 192 13.0 30.0 0.00 0.08 0.00 90 1012.2
20260904030558 69 255 14.0 30.0 0.00 0.08 0.00 90 1012.1
20260904030035 69 185 11.0 20.0 0.00 0.08 0.00 90 1012.3
20260904025518 69 194 11.0 22.0 0.00 0.12 0.00 90 1012.3
20260904025026 69 184 10.0 22.0 0.00 0.12 0.00 90 1012.3
20260904024534 69 184 10.0 22.0 0.00 0.12 0.00 90 1012.3
20260904024021 69 183 12.0 26.0 0.00 0.12 0.00 90 1012.3
20260904023527 69 180 13.0 29.0 0.00 0.12 0.00 90 1012.4
20260904023050 69 172 11.0 22.0 0.00 0.12 0.00 90 1012.5
20260904022535 69 192 9.0 21.0 0.00 0.12 0.00 90 1012.6
20260904022020 69 134 12.0 22.0 0.00 0.12 0.00 90 1012.6
20260904021528 69 190 13.0 22.0 0.00 0.12 0.00 90 1012.6
20260904021024 69 184 11.0 26.0 0.00 0.12 0.00 90 1012.7
20260904020550 69 145 12.0 23.0 0.00 0.12 0.00 90 1012.8
20260904020029 69 181 11.0 23.0 0.00 0.12 0.00 90 1012.8
20260904015536 69 196 10.0 22.0 0.00 0.12 0.00 90 1013.0
20260904015037 69 173 12.0 22.0 0.00 0.12 0.00 90 1012.9
20260904014539 69 215 9.0 22.0 0.00 0.12 0.00 90 1013.0
20260904014021 69 215 12.0 22.0 0.00 0.12 0.00 90 1013.1
20260904013529 69 186 10.0 28.0 0.00 0.12 0.00 90 1013.1
20260904013032 69 259 12.0 28.0 0.00 0.12 0.00 90 1013.2
20260904012521 69 182 15.0 25.0 0.00 0.12 0.00 90 1013.2
20260904012031 69 190 8.0 18.0 0.00 0.12 0.00 90 1013.3
20260904011520 69 169 10.0 21.0 0.00 0.12 0.00 90 1013.4
20260904011026 69 171 11.0 23.0 0.00 0.12 0.00 91 1013.4
20260904010526 69 219 11.0 25.0 0.00 0.12 0.00 91 1013.5
20260904010026 69 194 9.0 22.0 0.00 0.12 0.00 91 1013.5
20260904005535 69 229 11.0 24.0 0.00 0.12 0.00 91 1013.6
20260904005042 69 230 12.0 23.0 0.00 0.12 0.00 91 1013.7
20260904004545 69 201 11.0 23.0 0.00 0.12 0.00 91 1013.8
20260904004051 69 263 11.0 21.0 0.00 0.12 0.00 91 1013.8
20260904003520 69 248 10.0 20.0 0.00 0.12 0.00 91 1014.0
20260904003027 69 199 9.0 19.0 0.00 0.12 0.00 91 1013.9
20260904002528 69 198 7.0 16.0 0.00 0.12 0.00 91 1013.9
20260904002035 69 180 10.0 20.0 0.00 0.12 0.00 91 1014.0
20260904001525 69 194 9.0 20.0 0.00 0.12 0.00 91 1014.2
20260904001032 69 194 8.0 20.0 0.00 0.12 0.00 91 1014.2
20260904000521 69 140 10.0 25.0 0.00 0.12 0.00 91 1014.2
20260904000019 69 240 10.0 25.0 0.00 0.12 0.00 91 1014.3
20260903235529 69 242 11.0 25.0 0.00 0.12 0.00 91 1014.3
20260903235037 69 283 12.0 23.0 0.00 0.12 0.00 91 1014.4
20260903234525 69 208 12.0 21.0 0.00 0.12 0.00 91 1014.4
20260903234029 69 139 9.0 18.0 0.00 0.12 0.00 91 1014.4
20260903233533 69 181 8.0 21.0 0.00 0.12 0.00 91 1014.3
20260903233020 69 213 10.0 21.0 0.00 0.12 0.00 91 1014.4
20260903232554 69 243 8.0 21.0 0.00 0.12 0.00 91 1014.5
20260903232022 69 223 8.0 21.0 0.00 0.12 0.00 91 1014.4
20260903231531 69 184 9.0 22.0 0.00 0.12 0.00 91 1014.4
20260903231033 69 180 11.0 22.0 0.00 0.12 0.00 91 1014.5
20260903230520 69 191 10.0 22.0 0.00 0.12 0.00 91 1014.5
20260903230020 69 160 11.0 20.0 0.00 0.12 0.00 91 1014.7
20260903225528 69 176 13.0 21.0 0.00 0.12 0.00 91 1014.8
20260903225028 69 160 9.0 16.0 0.00 0.12 0.00 91 1014.7
20260903224537 69 182 8.0 17.0 0.00 0.12 0.00 90 1014.9
20260903224022 69 190 9.0 22.0 0.00 0.12 0.00 90 1014.8
20260903223524 69 199 12.0 22.0 0.00 0.12 0.00 90 1014.9
20260903223030 69 173 11.0 22.0 0.00 0.12 0.00 90 1014.9
20260903222535 69 217 8.0 21.0 0.00 0.12 0.00 90 1015.0
20260903222042 69 196 11.0 21.0 0.00 0.12 0.00 90 1014.9
20260903221549 69 231 12.0 24.0 0.00 0.12 0.00 90 1015.1
20260903221033 69 187 12.0 24.0 0.00 0.12 0.00 90 1015.2
20260903220517 69 246 10.0 21.0 0.00 0.12 0.00 90 1015.2
20260903220030 69 165 10.0 20.0 0.00 0.12 0.00 90 1015.2
20260903215534 69 234 9.0 21.0 0.00 0.12 0.02 90 1015.3
20260903215022 69 187 11.0 21.0 0.00 0.12 0.02 90 1015.3
20260903214525 69 217 13.0 24.0 0.00 0.12 0.02 90 1015.4
20260903214031 69 210 11.0 24.0 0.00 0.12 0.02 90 1015.3
20260903213537 69 149 10.0 29.0 0.00 0.12 0.02 90 1015.4
20260903213024 69 235 14.0 19.0 0.00 0.12 0.02 90 1015.5
20260903212534 69 206 9.0 20.0 0.00 0.12 0.02 90 1015.5
20260903212018 69 175 10.0 22.0 0.00 0.12 0.02 90 1015.5
20260903211523 69 212 12.0 22.0 0.00 0.12 0.02 90 1015.4
20260903211030 69 212 11.0 21.0 0.00 0.12 0.02 90 1015.5
20260903210536 69 157 13.0 27.0 0.00 0.12 0.02 90 1015.5
20260903210056 69 151 11.0 29.0 0.00 0.12 0.02 91 1015.6
20260903205519 69 162 8.0 21.0 0.00 0.12 0.02 91 1015.4
20260903205045 69 263 9.0 25.0 0.00 0.12 0.02 90 1015.6
20260903204530 69 192 9.0 24.0 0.00 0.12 0.02 90 1015.7
20260903204030 69 165 13.0 24.0 0.00 0.12 0.02 90 1015.7
20260903203518 69 213 13.0 22.0 0.00 0.12 0.02 90 1016.1
20260903203022 69 228 10.0 22.0 0.00 0.12 0.02 90 1016.0
20260903202527 69 245 9.0 21.0 0.00 0.12 0.02 90 1016.1
20260903202031 69 126 8.0 20.0 0.00 0.12 0.02 90 1016.0
20260903201535 69 185 12.0 20.0 0.00 0.12 0.02 90 1016.0